PST,Max TemperatureF,Mean TemperatureF,Min TemperatureF,Max Dew PointF,MeanDew PointF,Min DewpointF,Max Humidity, Mean Humidity, Min Humidity, Max Sea Level PressureIn, Mean Sea Level PressureIn, Min Sea Level PressureIn, Max VisibilityMiles, Mean VisibilityMiles, Min VisibilityMiles, Max Wind SpeedMPH, Mean Wind SpeedMPH, Max Gust SpeedMPH,PrecipitationIn, CloudCover, Events, WindDirDegrees
2014-2-1,60,45,30,36,32,26,82,61,40,30.17,30.12,30.06,10,9,3,9,3,17,0.00,0,,17
2014-2-2,55,44,33,43,36,30,89,65,41,30.13,30.01,29.94,10,9,4,22,6,30,0.23,4,Rain,114
2014-2-3,58,48,38,42,38,34,93,68,43,30.08,30.02,29.96,10,8,1,13,6,17,0.00,2,,311
2014-2-4,57,46,34,39,36,32,89,68,47,30.17,30.12,30.07,10,9,5,10,4,14,0.00,0,,316
2014-2-5,59,47,34,38,36,32,92,65,37,30.23,30.15,30.11,10,8,4,8,2,11,0.00,1,,283
2014-2-6,52,49,45,46,43,38,93,82,71,30.11,30.03,29.95,10,6,2,15,4,18,0.28,8,Rain,79
2014-2-7,58,52,45,50,47,43,93,80,67,30.21,30.14,30.07,9,4,1,16,4,19,0.02,5,Rain,119
2014-2-8,64,57,50,53,50,47,93,77,60,30.26,30.22,30.18,10,8,4,15,7,18,0.01,5,Rain,129
2014-2-9,67,58,49,55,52,47,93,76,58,30.21,30.17,30.13,10,9,5,12,4,15,0.01,2,Rain,121
2014-2-10,71,61,50,55,52,48,100,77,53,30.23,30.19,30.14,10,6,0,18,7,22,0.00,3,Fog,338
2014-2-11,63,54,45,52,49,45,93,79,65,30.26,30.22,30.16,10,5,1,7,2,8,0.00,5,,242
2014-2-12,68,55,42,51,46,41,100,75,49,30.29,30.23,30.17,8,2,0,8,3,10,0.00,1,Fog,317
2014-2-13,71,56,41,52,47,40,100,74,47,30.23,30.18,30.10,6,2,0,9,2,12,0.00,1,Fog,133
2014-2-14,74,58,41,53,47,40,100,71,41,30.18,30.13,30.05,5,2,0,7,2,9,0.00,0,Fog,62
2014-2-15,67,54,41,54,48,40,100,82,63,30.08,30.02,29.98,3,1,0,12,3,14,0.00,1,Fog,346
2014-2-16,72,61,50,52,48,41,89,65,40,30.17,30.10,30.03,10,8,4,15,8,19,0.00,1,,314
2014-2-17,70,56,42,45,40,37,82,61,39,30.15,30.11,30.06,10,10,10,15,7,18,0.00,0,,317
2014-2-18,64,52,39,44,40,37,86,65,43,30.21,30.13,30.08,10,10,7,12,4,16,0.00,0,,285
2014-2-19,70,56,42,47,43,33,89,65,40,30.17,30.11,30.05,10,9,3,18,9,24,0.00,0,,325
2014-2-20,64,51,38,43,38,33,80,60,40,30.23,30.16,30.11,10,10,7,15,2,19,0.00,0,,53
2014-2-21,71,55,38,45,41,37,100,67,33,30.14,30.07,29.98,10,6,0,9,1,12,0.00,0,Fog,189
2014-2-22,74,57,40,45,40,34,96,60,23,30.02,29.98,29.91,10,5,0,9,2,13,0.00,0,Fog,295
2014-2-23,76,57,38,45,40,36,92,59,25,30.04,29.98,29.93,10,6,2,8,2,11,0.00,0,,75
2014-2-24,79,60,41,46,41,36,89,55,21,30.04,29.96,29.88,10,5,0,8,2,12,0.00,0,,257
2014-2-25,79,61,42,47,42,33,89,56,23,29.98,29.92,29.85,10,4,0,9,4,12,0.00,0,,119
2014-2-26,64,56,47,55,48,41,86,73,59,30.04,29.94,29.83,10,9,2,14,6,20,0.19,6,Rain,137
2014-2-27,67,58,48,56,49,44,93,71,48,29.99,29.88,29.70,10,9,2,25,6,32,0.11,2,Rain,168
2014-2-28,64,58,51,54,49,45,100,83,66,29.68,29.56,29.49,10,8,2,18,11,37,0.80,6,Rain-Thunderstorm,151